Theta_e
291 285 283 287 287 287 285 283 282 286 290 287 288 289 292 294 294 294 293 294 295 296 300 304 308 308 309 309 311 313 323 331 332 331 332 330 331 331 332 332 337 336 340 339
284 282 289 291 291 289 286 283 283 287 290 288 287 287 291 292 293 294 296 293 295 296 300 302 304 307 310 312 317 319 318 317 320 323 330 331 332 331 334 334 332 335 337 337
280 284 289 287 284 285 284 284 284 284 287 288 285 284 287 291 293 295 296 296 297 297 298 306 310 310 313 314 318 320 321 322 322 320 316 325 328 329 330 330 331 332 334 336
282 287 286 284 283 284 281 286 286 284 282 278 286 279 287 288 290 292 294 295 295 296 303 310 310 311 314 314 317 319 320 320 324 323 316 321 325 328 331 333 333 332 331 332
282 283 283 281 283 285 284 289 286 285 282 280 284 278 284 287 288 289 292 295 294 297 306 306 309 312 311 313 315 316 318 318 319 322 323 322 320 320 322 327 331 332 331 334
283 286 284 283 287 287 289 287 287 285 281 276 282 281 280 286 287 291 295 296 296 297 304 309 313 313 314 312 312 314 317 319 320 321 320 320 322 323 321 323 328 328 327 332
282 282 284 287 283 285 284 283 276 275 275 275 284 282 283 289 291 292 293 294 296 299 302 309 311 312 310 310 312 314 315 315 318 318 320 320 321 322 323 322 325 325 325 327
275 274 282 286 283 280 280 283 274 270 273 277 285 278 284 291 295 298 300 297 299 300 304 310 310 309 311 311 312 313 313 312 314 314 316 318 320 321 323 326 324 326 326 327
276 277 285 286 286 284 281 277 284 278 279 276 280 284 288 292 293 296 297 298 299 299 303 305 307 310 310 311 310 311 311 310 311 312 312 314 314 319 321 324 325 327 327 327
281 275 283 285 286 285 282 285 277 277 266 269 279 280 281 286 288 292 294 296 297 304 304 304 305 309 310 311 311 310 310 309 309 309 310 310 311 313 318 323 325 325 327 327
283 279 279 283 280 279 281 280 282 282 278 273 273 279 289 287 290 290 294 297 298 297 299 299 304 309 310 309 309 309 308 308 307 307 308 308 308 310 313 320 321 324 327 326
285 280 276 278 284 287 285 282 282 276 275 279 279 278 291 291 292 292 291 294 297 300 299 300 306 307 307 307 306 306 307 306 306 305 305 306 308 308 308 310 317 324 325 326
285 279 270 275 279 285 282 284 284 284 282 277 274 275 291 291 291 291 292 294 297 298 298 302 305 305 305 306 306 304 303 302 302 303 303 304 305 305 305 306 310 315 323 325
288 281 277 273 276 280 279 282 283 282 277 277 278 278 285 288 288 289 293 295 298 300 299 302 301 301 300 301 300 300 299 300 300 301 301 300 302 302 303 303 305 311 317 323
285 276 280 281 282 282 282 281 281 279 280 277 280 280 285 289 290 292 294 297 296 296 296 296 297 297 295 295 295 295 295 296 298 298 297 297 299 300 299 299 301 303 308 320
285 274 278 277 281 282 279 281 282 282 282 281 282 283 290 293 294 294 293 294 293 294 294 294 294 294 293 292 291 292 292 293 296 295 295 295 294 294 295 296 297 300 305 311
284 282 278 275 279 279 276 279 282 283 284 284 280 284 288 288 292 290 291 292 291 291 291 291 292 292 291 290 289 288 289 291 291 293 292 291 291 291 292 293 295 297 300 303
282 279 279 276 278 269 279 284 285 283 282 284 285 286 287 288 291 291 291 290 290 290 290 290 290 290 289 288 287 288 288 287 289 289 288 288 289 289 290 292 293 294 296 300
284 281 278 272 275 278 280 281 281 280 280 284 283 285 287 289 291 289 290 290 289 288 287 287 288 288 286 285 285 285 285 285 285 284 285 286 287 288 289 290 291 292 294 296
284 282 275 276 272 269 278 283 286 285 276 284 286 285 286 287 282 285 289 289 287 286 285 284 285 285 284 283 284 283 282 282 281 282 283 285 287 288 288 289 290 292 293 296
274 272 268 272 271 276 282 284 286 274 273 285 287 286 286 284 286 288 288 286 285 284 283 283 283 282 282 282 282 280 280 279 281 282 282 284 286 287 288 289 290 291 293 291
274 271 267 272 264 266 285 284 277 282 286 286 286 286 285 286 286 286 285 283 283 281 281 282 280 280 281 281 280 278 278 280 280 281 282 283 285 286 286 285 287 291 290 287
271 277 272 278 278 285 287 285 287 287 285 286 286 287 286 285 283 284 282 281 281 280 280 281 279 279 279 279 279 277 278 279 280 280 280 282 283 284 284 283 284 287 288 286
281 286 278 278 282 284 285 287 287 288 287 288 287 286 284 283 282 282 282 280 280 279 279 281 278 277 277 278 279 279 279 279 278 278 279 280 279 280 282 282 282 284 285 285
279 286 280 278 283 285 287 286 287 287 288 287 286 285 284 283 282 281 281 279 278 278 278 280 277 277 276 277 278 279 278 278 277 277 277 277 277 279 280 280 281 282 284 286
284 282 274 273 283 283 284 286 289 285 285 284 283 283 284 282 281 281 280 280 278 278 277 277 277 276 276 276 277 279 278 278 277 276 276 276 276 277 277 276 278 282 283 284
Wind_Speed
4 4 7 13 11 10 10 8 15 14 14 4 17 19 22 15 9 10 8 8 8 10 10 14 13 8 9 8 11 9 10 7 7 4 5 3 6 6 5 6 9 8 11 13
7 5 9 7 11 10 13 14 17 20 16 8 10 14 18 16 8 9 13 7 8 8 10 10 4 2 7 11 12 10 9 9 6 3 3 4 4 5 8 7 6 7 9 12
2 12 12 8 7 12 7 5 6 11 7 6 5 11 9 9 6 7 8 9 8 9 9 2 6 4 7 7 8 10 9 9 6 4 3 3 3 3 3 4 5 7 8 10
6 5 13 14 12 8 14 5 11 12 10 9 3 16 22 7 10 8 10 10 9 9 3 10 10 1 8 5 7 8 8 8 6 6 3 5 5 8 7 9 8 8 9 10
8 9 13 10 7 6 11 9 8 8 12 5 22 3 15 1 10 7 9 14 9 8 11 11 5 9 8 7 7 7 8 9 6 7 6 5 4 1 1 2 8 10 9 11
5 5 2 2 9 10 11 15 11 5 5 9 21 11 6 17 8 9 18 15 10 8 8 14 16 11 7 5 7 8 11 12 11 7 6 6 5 1 2 3 6 6 5 6
6 3 3 9 11 8 19 9 6 4 3 12 16 13 15 14 7 11 13 14 14 11 13 17 17 13 9 7 8 10 13 13 7 8 8 7 5 3 6 5 6 6 4 3
4 4 9 10 5 5 7 1 3 6 8 8 15 7 12 10 15 17 21 23 9 8 15 19 17 12 12 9 9 12 13 8 7 7 8 6 5 3 3 5 4 5 5 7
5 4 9 8 9 2 7 3 7 8 10 7 7 8 5 22 23 24 21 16 5 3 13 14 12 14 13 13 9 9 11 10 8 7 6 5 5 7 4 6 5 5 8 7
3 13 2 3 5 6 2 8 7 3 2 6 4 6 7 19 19 24 21 21 20 12 9 4 10 11 10 11 9 8 9 13 7 8 4 3 4 6 7 6 5 5 6 7
2 3 9 5 4 10 10 4 3 4 3 4 8 1 4 9 12 21 14 15 21 21 16 21 6 12 11 10 8 7 14 11 7 5 6 6 5 6 6 6 6 6 5 9
2 3 4 6 12 3 11 8 3 2 5 3 5 3 1 5 9 14 13 19 15 15 7 9 16 13 12 8 9 13 13 11 7 5 5 6 6 7 9 9 10 8 6 6
3 2 4 5 3 3 3 6 6 4 3 5 2 6 5 5 13 13 13 16 9 7 9 7 13 11 9 11 15 13 10 5 5 6 6 7 8 9 9 11 11 11 9 6
2 3 4 5 10 8 10 12 13 10 5 9 8 9 5 7 14 16 15 15 8 25 9 10 13 12 13 15 13 11 10 7 7 6 8 8 8 9 9 11 13 12 11 10
2 5 5 9 13 13 12 11 12 11 6 4 13 2 4 5 9 9 8 8 19 18 16 15 14 10 11 12 10 9 8 8 8 9 9 10 11 11 10 11 12 14 11 12
1 4 2 6 12 10 8 13 14 11 14 11 9 9 11 9 5 9 13 17 17 14 14 16 14 13 13 12 10 11 10 9 10 10 9 10 11 11 12 12 13 14 12 14
2 2 3 5 5 6 3 14 9 4 12 8 11 7 11 14 10 12 12 12 12 13 13 13 11 9 9 8 9 9 10 12 12 10 10 11 11 12 12 13 13 13 15 13
3 2 2 5 5 2 4 13 6 10 15 16 15 14 12 11 6 13 14 14 14 13 13 13 11 9 8 7 9 10 12 13 11 11 12 12 12 13 13 13 15 14 13 13
6 2 2 2 3 0 9 13 11 9 5 15 14 16 15 15 3 10 13 12 12 14 13 12 13 11 12 14 14 13 13 12 11 13 13 13 13 14 14 14 13 13 13 13
5 2 3 2 3 1 1 16 15 5 2 15 16 15 13 11 4 5 11 12 12 13 13 14 14 12 12 13 12 11 12 12 14 15 15 14 13 13 13 14 13 10 12 12
5 4 2 4 2 0 8 17 12 4 6 15 12 10 9 6 5 7 9 11 11 11 12 13 12 12 13 14 14 13 13 13 15 15 15 15 15 13 12 12 11 11 11 5
1 2 2 2 5 5 11 7 6 4 4 9 7 8 7 6 8 11 12 12 13 13 13 13 12 11 12 13 15 16 15 15 15 15 15 15 14 10 9 11 9 10 3 1
3 3 3 2 2 2 2 3 4 4 4 5 5 5 7 9 10 10 9 12 12 13 12 12 13 13 12 12 11 12 16 16 15 14 14 13 12 9 8 9 8 7 3 2
2 3 3 2 2 2 2 1 5 6 6 6 3 7 9 9 10 10 10 11 12 14 15 14 15 15 15 14 13 11 13 13 12 12 12 9 9 10 8 7 8 6 4 2
5 4 2 2 2 2 3 2 4 4 5 6 6 6 8 8 9 11 10 11 11 11 11 11 9 10 11 11 10 10 12 13 12 11 9 7 6 8 7 7 8 7 6 5
3 3 3 4 2 3 2 5 4 3 4 6 6 7 8 9 8 8 6 6 8 9 8 9 9 10 11 11 12 11 11 12 11 10 8 7 6 6 6 6 6 17 14 6
Wind_Direction
273 112 219 231 220 222 227 252 263 270 271 212 266 272 275 272 242 257 254 260 282 287 287 303 292 153 132 120 110 115 131 155 148 146 151 154 188 195 192 201 196 174 187 190
10 248 243 284 256 245 246 249 264 273 268 204 255 262 269 270 230 235 262 253 258 277 290 307 41 248 142 140 126 121 121 135 154 139 155 154 163 194 202 199 192 190 190 186
210 261 309 340 330 328 299 247 284 290 323 286 279 277 277 284 268 259 253 243 248 255 270 92 48 25 61 91 113 115 118 117 123 180 114 74 65 53 158 189 209 202 187 184
273 301 338 322 313 264 294 310 293 298 324 294 160 281 271 283 271 261 262 265 249 250 252 150 131 123 119 123 109 99 100 101 94 105 147 174 188 192 201 198 200 199 209 198
255 297 301 306 264 333 296 311 294 291 279 295 277 233 295 247 279 291 290 276 250 230 174 142 94 142 152 124 95 91 80 57 77 88 88 133 169 206 355 173 181 200 209 203
240 249 270 354 348 346 331 352 333 265 241 252 267 257 248 273 264 273 275 269 265 208 212 150 137 144 130 112 101 78 67 48 46 60 59 50 29 278 167 173 201 205 208 200
302 301 2 45 357 347 3 358 329 298 232 257 273 267 254 267 278 266 273 270 272 268 196 150 148 144 127 123 107 95 78 65 53 47 34 17 0 314 222 215 215 205 187 189
359 342 21 352 55 315 300 101 205 290 309 315 309 268 259 14 6 332 339 276 257 286 166 151 147 135 129 124 102 95 98 92 70 55 47 17 343 293 266 207 237 226 208 212
328 264 356 3 326 18 308 261 273 262 269 255 250 278 283 357 358 341 345 311 182 224 137 132 131 139 142 122 125 126 114 94 69 53 45 27 354 338 317 277 228 234 225 213
291 302 313 304 319 280 220 298 330 294 298 275 257 331 352 355 344 345 357 353 12 355 34 83 131 129 117 130 124 102 96 83 66 51 31 19 356 343 326 309 286 251 241 201
358 223 306 356 319 309 306 281 259 251 238 288 294 193 281 5 13 355 9 357 18 8 26 4 292 139 105 75 90 99 73 68 56 36 1 355 351 349 333 326 287 259 248 212
322 270 295 283 270 207 21 10 338 320 348 257 289 298 318 44 11 19 3 332 29 344 12 356 1 67 81 104 89 65 60 51 25 0 1 358 351 355 355 342 332 287 267 245
340 331 308 300 318 211 335 289 242 239 219 279 308 275 68 21 27 39 21 330 327 227 333 32 49 35 51 63 61 56 50 35 352 9 4 5 357 357 346 339 322 316 288 254
184 229 226 263 275 283 287 304 311 291 237 258 253 272 3 24 42 25 352 334 3 45 116 70 61 39 34 41 40 35 24 360 348 9 14 3 355 349 346 331 323 317 310 265
182 238 250 267 274 273 275 282 301 306 285 221 274 333 50 33 57 20 318 23 28 33 28 36 43 35 35 33 24 15 5 348 353 19 14 1 350 349 337 327 320 318 316 293
177 262 161 271 269 274 322 13 344 23 352 356 57 59 352 359 75 78 16 13 28 23 15 21 24 22 23 16 9 1 350 352 5 8 2 357 346 342 332 326 321 317 308 313
272 271 299 261 271 300 100 5 353 59 30 351 38 351 346 0 37 35 32 20 15 10 6 14 15 22 24 21 6 352 355 359 358 0 0 349 340 335 329 324 319 316 314 309
287 277 249 288 313 57 351 26 332 345 48 11 352 345 352 347 30 41 27 15 7 5 1 7 10 26 31 23 9 359 6 359 353 353 347 341 334 329 324 319 319 317 312 307
204 275 273 288 313 152 19 354 334 343 35 8 349 347 348 335 233 52 26 13 7 15 17 6 6 17 16 11 2 2 0 349 346 349 339 331 325 322 320 313 313 310 304 306
345 53 136 309 250 97 65 319 321 204 203 356 348 350 352 1 29 19 351 17 24 22 14 1 358 2 12 4 355 355 352 345 347 340 330 320 314 315 310 305 306 302 294 289
345 352 43 339 18 143 343 324 319 37 307 335 341 351 357 3 344 331 5 12 18 17 11 3 1 0 357 355 350 354 347 345 335 328 323 322 315 306 301 304 306 302 289 275
191 344 304 5 38 340 4 354 44 312 304 327 332 359 348 358 357 3 9 6 7 4 2 3 2 357 351 351 350 346 338 333 329 327 319 311 299 308 317 311 310 314 314 156
17 169 218 260 42 292 350 357 335 320 304 332 333 352 349 357 8 6 6 5 356 352 356 358 354 349 344 347 347 339 329 325 326 321 313 305 310 327 331 326 332 318 281 181
271 155 224 29 83 106 86 204 1 343 310 298 6 27 22 5 9 353 4 0 356 354 354 353 353 346 339 340 335 323 309 314 309 304 304 315 327 341 337 347 353 320 278 213
211 168 268 273 46 193 60 33 267 279 43 9 29 38 29 15 10 360 2 2 355 348 342 337 337 327 320 312 304 315 332 333 331 323 320 327 335 347 347 360 359 342 313 256
195 183 143 222 165 259 283 276 276 57 71 55 40 26 27 22 7 360 358 356 350 339 329 332 328 323 325 324 328 331 337 334 335 334 337 343 347 357 2 353 360 14 16 25